This demonstration page uses our WeatherBlox Daily Observations layout. Learn more.

Left ArrowRight Arrow

41.12389, -100.76542

Hourly Observations for May 3, 2017

Temp ( °F °C ) Dew Point ( °F °C ) Humidity (%) Winds ( mph kmh ) Pressure ( in mb ) Visibility ( mi km ) Precip ( " mm )
12:53 am 00:53 Cloudy 42 5.6 40 4.4 92 92 WNW 3 6 30.05 1018 10 16 0.00 0.00
1:53 am 01:53 Cloudy 43 6.1 40 4.4 89 89 SSW 5 7 30.05 1018 10 16 0.00 0.00
2:53 am 02:53 Mostly Cloudy 41 5 38 3.3 89 89 W 7 11 30.06 1018 10 16 0.00 0.00
3:53 am 03:53 Cloudy 40 4.4 39 3.9 97 97 Calm 30.05 1018 10 16 0.00 0.00
4:53 am 04:53 Clear 38 3.3 36 2.2 93 93 WNW 3 6 30.06 1018 10 16 0.00 0.00
5:49 am 05:49 Clear with Mist and Fog 36 2 34 1 93 93 Calm 30.15 1021 2 3 0.00 0.00
5:53 am 05:53 Clear with Mist and Fog 34 1.1 33 0.6 97 97 Calm 30.08 1019 4 6 0.00 0.00
6:53 am 06:53 Partly Cloudy 36 2.2 35 1.7 97 97 Calm 30.09 1019 7 11 0.00 0.00
7:53 am 07:53 Mostly Sunny 40 4.4 39 3.9 97 97 NW 5 7 30.11 1020 9 14 0.00 0.00
8:53 am 08:53 Mostly Cloudy 45 7.2 42 5.6 90 90 NW 5 7 30.12 1020 10 16 0.00 0.00
9:53 am 09:53 Cloudy 49 9.4 42 5.6 77 77 N 16 26 30.12 1020 10 16 0.00 0.03
10:08 am 10:08 Mostly Cloudy 50 10 42 5.6 74 74 N 16 26 30.12 1020 10 16 0.00 0.00
10:53 am 10:53 Cloudy 50 10 41 5 71 71 N 13 20 30.15 1021 10 16 0.00 0.00
11:53 am 11:53 Mostly Cloudy 55 12.8 41 5 59 59 NNE 18 30 30.14 1021 10 16 0.00 0.00
12:03 pm 12:03 Cloudy 54 12.2 40 4.4 59 59 NNE 17 28 30.15 1021 10 16 0.00 0.00
12:53 pm 12:53 Cloudy 53 11.7 38 3.3 57 57 N 16 26 30.15 1021 10 16 0.00 0.00
1:53 pm 13:53 Cloudy 55 12.8 39 3.9 55 55 NNW 18 30 30.14 1021 10 16 0.00 0.03
2:53 pm 14:53 Mostly Cloudy 55 12.8 41 5 59 59 NW 17 28 30.14 1021 10 16 0.00 0.00
3:53 pm 15:53 Mostly Sunny 59 15 44 6.7 58 58 NNW 13 20 30.12 1020 10 16 0.01 0.25
4:13 pm 16:13 Mostly Cloudy 60 15.6 39 3.9 46 46 NNW 23 37 30.06 1018 10 16 0.00 0.00
4:53 pm 16:53 Mostly Cloudy 58 14.4 42 5.6 56 56 NNW 16 26 30.12 1020 10 16 0.03 0.76
5:53 pm 17:53 Mostly Cloudy 61 16.1 34 1.1 36 36 N 20 31 30.13 1020 10 16 0.00 0.00
6:53 pm 18:53 Mostly Cloudy 59 15 32 0 36 36 N 22 35 30.14 1021 10 16 0.00 0.00
7:53 pm 19:53 Mostly Cloudy 57 13.9 34 1.1 42 42 NNW 14 22 30.15 1021 10 16 0.00 0.00
8:53 pm 20:53 Mostly Clear 50 10 34 1.1 54 54 N 7 11 30.17 1022 10 16 0.00 0.00
9:53 pm 21:53 Partly Cloudy 47 8.3 34 1.1 61 61 N 7 11 30.20 1023 10 16 0.00 0.00
10:53 pm 22:53 Clear 39 3.9 33 0.6 79 79 NNW 6 9 30.23 1024 10 16 0.00 0.00
11:53 pm 23:53 Clear 40 4.4 32 0 73 73 W 5 7 30.22 1024 10 16 0.00 0.00

Powered by AerisWeather